Regional Weather Roundup
Issued by NWS

Home | Current Version | Previous Version | Graphics & Text | Print | Product List | Glossary On
Versions: 1 2 3 4 5 6 7 8 9 10 11 12 13 14 15 16 17 18 19 20 21 22 23 24 25 26 27 28 29 30 31 32 33 34 35 36 37 38 39 40 41 42 43 44 45 46 47 48 49 50
248
ASUS43 KLOT 102308
RWRIL

ILLINOIS REGIONAL WEATHER ROUNDUP
NATIONAL WEATHER SERVICE CHICAGO/ROMEOVILLE IL
500 PM CST SAT DEC 10 2016

NOTE: "FAIR" INDICATES FEW OR NO CLOUDS BELOW 12,000 FEET WITH NO
SIGNIFICANT WEATHER AND/OR OBSTRUCTIONS TO VISIBILITY.

* THESE STATIONS ARE NOT UNDER NWS QUALITY CONTROL. THEY ALSO MAY NOT
  REPORT WEATHER SUCH AS PRECIPITATION OR FOG.

ILZ001-002-007-009-015-016-024-110000-
NORTHWEST ILLINOIS

CITY           SKY/WX    TMP DP  RH WIND       PRES   REMARKS
MOLINE         LGT SNOW  23  20  88 E7        30.35F VSB 1   WCI  15
STERLING*      LGT SNOW  22  20  92 VRB3      30.39F FOG
SAVANNA*       LGT SNOW  22  20  93 SE5       30.38F WCI  16
$$

ILZ003-004-008-010-011-017-018-110000-
NORTH CENTRAL ILLINOIS

CITY           SKY/WX    TMP DP  RH WIND       PRES   REMARKS
ROCKFORD       LGT SNOW  22  18  85 SE6       30.40F FOG     WCI  14
FREEPORT*      LGT SNOW  21  19  91 SE3       30.39F
ROCHELLE*      LGT SNOW  21  19  93 SE5       30.39F WCI  15
DE KALB*       LGT SNOW  21  19  91 SE5       30.39F WCI  14
$$

ILZ005-006-012>014-019>023-110000-
NORTHEAST ILLINOIS

CITY           SKY/WX    TMP DP  RH WIND       PRES   REMARKS
CHICAGO-OHARE  LGT SNOW  22  17  81 SW6       30.41S WCI  14
CHICAGO-MIDWAY LGT SNOW  23  17  78 SW5       30.43R FOG     WCI  17
AURORA         LGT SNOW  23  19  85 SE5       30.41F FOG     WCI  17
LANSING*       LGT SNOW  23  20  88 SW6       30.44S WCI  16
JOLIET*        LGT SNOW  24  22  89 CALM      30.43S VSB 1
WAUKEGAN       LGT SNOW  22  15  75 SW7       30.40R WCI  13
DUPAGE AIRPORT LGT SNOW  21  17  84 S3        30.40S FOG
KANKAKEE*      LGT SNOW  25  20  80 CALM      30.43S
WHEELING       LGT SNOW  22  17  81 SW5       30.43S WCI  16
MORRIS*        LGT SNOW  24  21  89 CALM      30.41S
ROMEOVILLE*    LGT SNOW  23  22  98 S6        30.42S WCI  15
NORTHERLY ISL    N/A     23  17  78 S9          N/A  WCI  13
$$

LMZ740>746-110000-
SOUTHERN LAKE MICHIGAN

STATION/POSITION SKY/WX   TEMP    WIND        PRES    VSBY  WAVE
                          AIR SEA DIR/SP/G                  HT/PER
                          (F)     (DEG/KT/KT) (MB)    (MI)  (FT/S)
BURNHAM HARBOR             23     190/  5/  8   N/A
CALUMET HARBOR             23     200/  5/  8 1029.7R
BURNS HARBOR               24     220/  8/ 12 1030.8R
$$

ILZ025>027-034>036-040-047-049-050-058-095>099-110000-
WEST-CENTRAL ILLINOIS

CITY           SKY/WX    TMP DP  RH WIND       PRES   REMARKS
QUINCY         CLOUDY    29  17  61 SE15      30.28F WCI  18
GALESBURG*     CLOUDY    23  20  90 E7        30.35F WCI  14
MACOMB*        CLOUDY    27  16  62 SE13      30.35F WCI  16
JACKSONVILLE*  CLOUDY    30  18  61 SE10      30.34F WCI  21
PITTSFIELD*    CLOUDY    31  19  61 SE8       30.33S WCI  23
$$

ILZ028>032-037-038-041>044-048-051>054-059>061-110000-
CENTRAL ILLINOIS

CITY           SKY/WX    TMP DP  RH WIND       PRES   REMARKS
PONTIAC        LGT SNOW  25  24  95 S7        30.42S WCI  18
BLOOMINGTON    LGT SNOW  24  19  81 SE10      30.39F WCI  14
DECATUR        CLOUDY    28  16  60 SE10      30.40F WCI  19
PEORIA         CLOUDY    24  20  84 E7        30.39S WCI  16
LACON*         LGT SNOW  24  22  93 S7        30.40S WCI  15
LINCOLN*       CLOUDY    29  19  65 SE12      30.38F WCI  19
SPRINGFIELD    CLOUDY    30  18  60 SE13      30.36F WCI  20
TAYLORVILLE    CLOUDY    29  18  62 CALM      30.38F
$$

ILZ033-039-045-046-055>057-062-063-110000-
EAST-CENTRAL ILLINOIS

CITY           SKY/WX    TMP DP  RH WIND       PRES   REMARKS
CHAMPAIGN      CLOUDY    28  16  60 SE10      30.41F WCI  19
RANTOUL*       LGT SNOW  27  23  84 S7        30.41F WCI  20
MATTOON        CLOUDY    28  16  60 SE8       30.41F WCI  20
PARIS*         CLOUDY    28  20  72 SE6       30.44F WCI  21
$$

ILZ079-100>102-110000-
SOUTHWEST ILLINOIS

CITY           SKY/WX    TMP DP  RH WIND       PRES   REMARKS
ALTON          CLOUDY    32  19  59 S12       30.36F WCI  23
BELLEVILLE     CLOUDY    33  19  58 SE6       30.36F WCI  27
CAHOKIA*       CLOUDY    33  20  58 SE7       30.36F WCI  27
SPARTA*        CLOUDY    33  19  56 SE7       30.39F WCI  27
$$

ILZ064>066-069>071-074>076-080>082-084>086-088>090-092>094-110000-
SOUTH-CENTRAL ILLINOIS

CITY           SKY/WX    TMP DP  RH WIND       PRES   REMARKS
CARBONDALE     CLOUDY    34  19  54 SE5       30.42F WCI  30
CAIRO*         CLOUDY    37  19  46 SE8       30.41F WCI  31
EFFINGHAM*     CLOUDY    31  20  64 E8        30.43F WCI  23
MARION         CLOUDY    36  18  48 S12       30.42F WCI  27
CENTRALIA*     CLOUDY    33  20  59 S8        30.39F WCI  26
SALEM*         CLOUDY    34  20  57 SE3       30.40F
METROPOLIS*    CLEAR     34  17  51 CALM      30.44S
$$

ILZ067-068-072-073-078-083-087-091-110000-
SOUTHEAST ILLINOIS

CITY           SKY/WX    TMP DP  RH WIND       PRES   REMARKS
LAWRENCEVILLE  CLOUDY    30  20  66 SE7       30.45F WCI  23
FLORA*         CLOUDY    33  22  64 SE8       30.42F WCI  25
FAIRFIELD*     CLOUDY    33  19  58 CALM      30.42S
HARRISBURG*    CLOUDY    33  24  71 SE7       30.44F WCI  26
ROBINSON*      CLOUDY    29  18  63 SE6       30.46F WCI  23
CARMI*         CLOUDY    32  22  67 SE7       30.44F WCI  25
$$

ABBREVIATIONS USED IN REMARKS
   TC - TEMPERATURE IN CELSIUS
  WCI - WIND CHILL INDEX
   HX - HEAT INDEX
  VSB - VISIBILITY
$$





USA.gov is the U.S. government's official web portal to all federal, state and local government web resources and services.